Location: Arborea
(39.7744°N, 8.5819°E)
Time: 04:13:05
(UTC+00:00)

USA 267 - Pass Details

Date: 24 October 2021
Orbit: 1101 x 1107 km, 123.0° (Epoch: 27 November)

Event Time Altitude Azimuth Distance (km) Brightness Sun altitude
Exits shadow 17:53:51 - 138° (SE) 3,342 5.4 -16.1°
Reaches altitude 10° 17:54:53 10° 138° (SE) 2,950 5.1 -16.3°
Maximum altitude 18:01:24 77° 225° (SW) 1,128 3.4 -17.5°
Drops below altitude 10° 18:07:57 10° 312° (NW) 2,961 6.2 -18.8°
Sets 18:10:26 0° 313° (NW) 3,921 6.9 -19.3°
